Date String (YYYY-MM-DD hh:mm:ss) UTC,Instrument flags,Ambient pressure (hPa),Sample flow (lpm),Bypass flow (lpm),Sample temperature (°C),Ambient temperature (°C),ASC tube jacket temperature (°C),LED temperature (°C),Box temperature (°C),Sample RH (%),Span deviation,Mass concentration (μg/m³),Mass concentration (μg/m³),Mass concentration (μg/m³)
DateTimeUTC,F1_M11,P_M11,Q1_M11,Q2_M11,T1_M11,T2_M11,T3_M11,T4_M11,T5_M11,U1_M11,ZSPAN_M11,X0_M11,X2_M11,X1_M11
2022-03-19 22:00:00,,0823.9,5.00,0.00,26.8,26.1,00.0,35.8,28.6,07.2,0000.0,0013.84,0005.51,0003.34
2022-03-19 22:01:00,,0824.0,4.99,0.00,26.8,26.1,00.0,35.7,28.5,07.3,0000.0,0013.84,0005.46,0003.34
2022-03-19 22:02:00,,0823.9,5.01,0.00,26.8,26.1,00.0,35.8,28.5,06.7,0000.0,0013.85,0005.47,0003.32
2022-03-19 22:03:00,,0823.9,5.00,0.00,26.8,26.1,00.0,35.8,28.5,06.8,0000.0,0013.71,0005.43,0003.29
2022-03-19 22:04:00,,0823.9,4.99,0.00,26.8,26.1,00.0,35.7,28.5,07.0,0000.0,0013.05,0005.33,0003.27
2022-03-19 22:05:00,,0823.9,5.00,0.00,26.8,26.1,00.0,35.7,28.5,06.8,0000.0,0013.39,0005.39,0003.27
2022-03-19 22:06:00,,0823.9,5.00,0.00,26.8,26.1,00.0,35.8,28.5,06.8,0000.0,0013.53,0005.44,0003.28
2022-03-19 22:07:00,,0823.9,4.99,0.00,26.8,26.1,00.0,35.8,28.5,06.8,0000.0,0013.41,0005.41,0003.28
2022-03-19 22:08:00,,0823.9,5.00,0.00,26.8,26.1,00.0,35.8,28.5,06.8,0000.0,0013.29,0005.39,0003.29
2022-03-19 22:09:00,,0823.9,5.02,0.00,26.8,26.1,00.0,35.8,28.5,06.9,0000.0,0013.16,0005.34,0003.29
2022-03-19 22:10:00,,0823.9,5.00,0.00,26.8,26.1,00.0,35.8,28.5,06.7,0000.0,0013.71,0005.33,0003.30
2022-03-19 22:11:00,,0823.9,5.00,0.00,26.8,26.1,00.0,35.8,28.5,07.3,0000.0,0013.86,0005.31,0003.29
2022-03-19 22:12:00,,0823.9,5.00,0.00,26.8,26.1,00.0,35.8,28.5,07.7,0000.0,0013.17,0005.32,0003.29
2022-03-19 22:13:00,,0823.9,5.00,0.00,26.8,26.0,00.0,35.8,28.5,08.0,0000.0,0012.85,0005.33,0003.28
2022-03-19 22:14:00,,0823.9,5.01,0.00,26.8,26.0,00.0,35.8,28.5,08.2,0000.0,0012.71,0005.27,0003.28
2022-03-19 22:15:00,,0823.9,5.01,0.00,26.7,26.0,00.0,35.7,28.4,08.0,0000.0,0012.58,0005.23,0003.28
2022-03-19 22:16:00,,0823.9,5.00,0.00,26.7,25.9,00.0,35.7,28.4,08.2,0000.0,0012.65,0005.22,0003.28
2022-03-19 22:17:00,,0823.9,4.99,0.00,26.7,25.9,00.0,35.7,28.4,08.4,0000.0,0012.30,0005.16,0003.26
2022-03-19 22:18:00,,0823.9,4.99,0.00,26.7,25.9,00.0,35.7,28.4,08.4,0000.0,0012.21,0005.15,0003.25
2022-03-19 22:19:00,,0824.0,5.00,0.00,26.7,25.9,00.0,35.7,28.4,08.6,0000.0,0012.21,0005.12,0003.23
2022-03-19 22:20:00,,0823.9,5.01,0.00,26.7,25.9,00.0,35.7,28.4,08.3,0000.0,0012.11,0005.07,0003.23
2022-03-19 22:21:00,,0823.9,5.01,0.00,26.7,25.9,00.0,35.7,28.4,08.1,0000.0,0011.74,0005.05,0003.22
2022-03-19 22:22:00,,0823.9,5.00,0.00,26.6,25.8,00.0,35.7,28.3,08.0,0000.0,0011.91,0005.00,0003.21
2022-03-19 22:23:00,,0823.9,5.00,0.00,26.6,25.7,00.0,35.7,28.3,07.9,0000.0,0011.83,0005.00,0003.21
2022-03-19 22:24:00,,0824.0,4.99,0.00,26.6,25.7,00.0,35.7,28.3,08.1,0000.0,0011.79,0004.97,0003.21
2022-03-19 22:25:00,,0823.9,5.00,0.00,26.6,25.7,00.0,35.7,28.3,07.8,0000.0,0011.93,0005.00,0003.22
2022-03-19 22:26:00,,0823.9,5.00,0.00,26.6,25.8,00.0,35.6,28.3,08.0,0000.0,0012.03,0005.00,0003.20
2022-03-19 22:27:00,,0823.9,5.00,0.00,26.6,25.8,00.0,35.6,28.3,07.9,0000.0,0011.70,0004.98,0003.20
2022-03-19 22:28:00,,0823.9,5.00,0.00,26.6,25.8,00.0,35.6,28.3,08.0,0000.0,0011.69,0004.99,0003.20
2022-03-19 22:29:00,,0823.9,5.00,0.00,26.6,25.8,00.0,35.6,28.3,08.2,0000.0,0012.36,0005.03,0003.19
2022-03-19 22:30:00,,0823.9,5.01,0.00,26.6,25.8,00.0,35.6,28.3,08.3,0000.0,0012.52,0005.08,0003.18
2022-03-19 22:31:00,,0823.9,5.01,0.00,26.6,25.9,00.0,35.6,28.4,08.2,0000.0,0012.64,0005.09,0003.18
2022-03-19 22:32:00,,0823.8,4.99,0.00,26.6,25.9,00.0,35.6,28.4,08.1,0000.0,0012.47,0005.05,0003.17
2022-03-19 22:33:00,,0823.9,5.00,0.00,26.6,25.9,00.0,35.6,28.4,08.4,0000.0,0012.21,0005.06,0003.16
2022-03-19 22:34:00,,0823.8,5.01,0.00,26.6,25.9,00.0,35.6,28.4,08.4,0000.0,0012.37,0005.04,0003.16
2022-03-19 22:35:00,,0823.8,5.01,0.00,26.6,25.9,00.0,35.6,28.4,08.0,0000.0,0012.38,0005.02,0003.16
2022-03-19 22:36:00,,0823.8,4.99,0.00,26.6,25.9,00.0,35.6,28.4,07.9,0000.0,0012.24,0005.01,0003.15
2022-03-19 22:37:00,,0823.8,5.00,0.00,26.6,25.9,00.0,35.6,28.4,08.0,0000.0,0012.26,0005.01,0003.16
2022-03-19 22:38:00,,0823.8,5.00,0.00,26.6,25.9,00.0,35.6,28.4,08.4,0000.0,0012.59,0004.97,0003.15
2022-03-19 22:39:00,,0823.8,5.01,0.00,26.6,25.9,00.0,35.6,28.4,08.0,0000.0,0012.56,0004.95,0003.16
2022-03-19 22:40:00,,0823.8,4.99,0.00,26.6,25.9,00.0,35.6,28.4,07.9,0000.0,0012.23,0004.93,0003.18
2022-03-19 22:41:00,,0823.8,5.01,0.00,26.6,25.9,00.0,35.6,28.4,07.9,0000.0,0012.52,0004.86,0003.18
2022-03-19 22:42:00,,0823.8,4.99,0.00,26.6,25.9,00.0,35.6,28.4,08.0,0000.0,0012.42,0004.85,0003.19
2022-03-19 22:43:00,,0823.8,5.00,0.00,26.6,25.9,00.0,35.6,28.4,08.0,0000.0,0012.63,0004.91,0003.19
2022-03-19 22:44:00,,0823.8,5.01,0.00,26.6,25.8,00.0,35.6,28.4,07.9,0000.0,0012.81,0004.93,0003.20
2022-03-19 22:45:00,,0823.7,4.99,0.00,26.6,25.8,00.0,35.6,28.4,08.1,0000.0,0012.76,0004.96,0003.19
2022-03-19 22:46:00,,0823.7,5.00,0.00,26.6,25.8,00.0,35.6,28.4,08.3,0000.0,0012.76,0004.98,0003.19
2022-03-19 22:47:00,,0823.7,5.00,0.00,26.6,25.9,00.0,35.6,28.4,08.2,0000.0,0013.00,0005.04,0003.20
2022-03-19 22:48:00,,0823.7,5.00,0.00,26.6,25.9,00.0,35.6,28.4,08.4,0000.0,0013.10,0005.06,0003.21
2022-03-19 22:49:00,,0823.6,5.00,0.00,26.7,25.9,00.0,35.6,28.4,08.3,0000.0,0012.70,0005.10,0003.22
2022-03-19 22:50:00,,0823.7,4.99,0.00,26.6,25.8,00.0,35.6,28.4,08.0,0000.0,0013.27,0005.20,0003.22
2022-03-19 22:51:00,,0823.7,4.99,0.00,26.6,25.8,00.0,35.6,28.4,08.0,0000.0,0013.11,0005.21,0003.21
2022-03-19 22:52:00,,0823.7,4.99,0.00,26.6,25.8,00.0,35.6,28.4,08.2,0000.0,0012.37,0005.17,0003.21
2022-03-19 22:53:00,,0823.7,5.02,0.00,26.6,25.8,00.0,35.6,28.4,08.4,0000.0,0012.55,0005.19,0003.21
2022-03-19 22:54:00,,0823.7,5.00,0.00,26.6,25.8,00.0,35.6,28.4,08.2,0000.0,0012.45,0005.17,0003.20
2022-03-19 22:55:00,,0823.7,5.00,0.00,26.6,25.9,00.0,35.6,28.4,08.3,0000.0,0012.17,0005.19,0003.21
2022-03-19 22:56:00,,0823.7,5.00,0.00,26.6,25.9,00.0,35.6,28.4,08.3,0000.0,0012.78,0005.17,0003.21
2022-03-19 22:57:00,,0823.7,5.00,0.00,26.6,25.9,00.0,35.6,28.4,08.1,0000.0,0013.23,0005.14,0003.20
2022-03-19 22:58:00,,0823.7,5.00,0.00,26.6,25.9,00.0,35.6,28.4,08.1,0000.0,0013.94,0005.12,0003.19
2022-03-19 22:59:00,,0823.7,4.99,0.00,26.6,25.9,00.0,35.6,28.4,07.7,0000.0,0014.08,0005.07,0003.19
